Change the Weather History Date:

Tuesday, January 13, 2015

  Actual Average Record
Temperature  
Mean Temperature 28 °F 34 °F  
Max Temperature 32 °F 42 °F 75 °F (2005)
Min Temperature 24 °F 25 °F -12 °F (1912)
Degree Days  
Heating Degree Days 37 32  
Month to date heating degree days 470 405  
Since 1 July heating degree days 2342 2160  
Cooling Degree Days 0 0  
Month to date cooling degree days 0 0  
Year to date cooling degree days 0 0  
Moisture  
Dew Point 20 °F    
Average Humidity 80    
Maximum Humidity 92    
Minimum Humidity 68    
Precipitation  
Precipitation T in 0.10 in 1.46 in (1899)
Month to date precipitation 1.30 1.24  
Year to date precipitation 1.30 1.24  
Snow  
Snow 0.00 in - - ()
Month to date snowfall T  
Since 1 September snowfall T  
Snow Depth 0.00 in    
Sea Level Pressure  
Sea Level Pressure 30.47 in    
Wind  
Wind Speed 8 mph (NNE)    
Max Wind Speed 15 mph    
Max Gust Speed 22 mph    
Visibility 10 miles    
Events      
T = Trace of Precipitation, MM = Missing Value Source: NWS Daily Summary

Daily Weather History Graph

Daily Weather History Graph

Search for Another Location

Airport or City:

Trip Planner

Search our weather history database for the weather conditions in past years. The results will help you decide how hot, cold, wet, or windy it might be!

Date:

Astronomy

Jan. 13, 2015 Rise Set
Actual Time 7:46 AM EST 5:31 PM EST
Civil Twilight 7:17 AM EST 6:00 PM EST
Nautical Twilight 6:44 AM EST 6:33 PM EST
Astronomical Twilight 6:13 AM EST 7:04 PM EST
Moon 12:42 AM EST (1/13) 12:09 PM EST (1/13)
Length of Visible Light 10h 42m
Length of Day
9h 44m
Waning Gibbous, 47% of the Moon is Illuminated
Jan 13
Waning Gibbous
Jan 20
New
Jan 26
First Quarter
Feb 3
Full
Feb 11
Last Quarter

Hourly Weather History & Observations

Time (EST) Temp. Windchill Dew Point Humidity Pressure Visibility Wind Dir Wind Speed Gust Speed Precip Events Conditions
12:51 AM 30.9 °F 21.7 °F 28.0 °F 89% 30.41 in 7.0 mi NE 11.5 mph - N/A   Overcast
1:29 AM 30.2 °F 20.8 °F 26.6 °F 86% 30.40 in 7.0 mi NNE 11.5 mph - N/A   Overcast
1:51 AM 30.0 °F 23.2 °F 27.0 °F 88% 30.43 in 7.0 mi NNE 6.9 mph - N/A   Overcast
2:09 AM 30.0 °F 19.5 °F 26.1 °F 85% 30.42 in 7.0 mi North 13.8 mph 18.4 mph N/A   Overcast
2:48 AM 28.4 °F 18.5 °F 24.8 °F 86% 30.44 in 9.0 mi NNE 11.5 mph - 0.00 in   Overcast
2:51 AM 28.9 °F 21.1 °F 25.0 °F 85% 30.46 in 9.0 mi NNE 8.1 mph - 0.00 in   Overcast
3:51 AM 28.0 °F 19.3 °F 21.9 °F 78% 30.48 in 10.0 mi NNE 9.2 mph - 0.00 in   Overcast
4:51 AM 27.0 °F 18.0 °F 21.0 °F 78% 30.48 in 10.0 mi NNE 9.2 mph - N/A   Overcast
5:51 AM 27.0 °F 19.5 °F 21.9 °F 81% 30.49 in 10.0 mi NNE 6.9 mph - N/A   Overcast
6:51 AM 27.0 °F 18.7 °F 21.0 °F 78% 30.51 in 10.0 mi NNE 8.1 mph - 0.00 in   Overcast
7:51 AM 26.1 °F 16.2 °F 19.0 °F 75% 30.53 in 10.0 mi NNE 10.4 mph 17.3 mph N/A   Overcast
8:51 AM 25.0 °F 18.1 °F 19.0 °F 78% 30.54 in 10.0 mi NNE 5.8 mph - N/A   Overcast
9:51 AM 25.0 °F 18.1 °F 18.0 °F 75% 30.56 in 10.0 mi NE 5.8 mph - N/A   Overcast
10:51 AM 25.0 °F 15.5 °F 18.0 °F 75% 30.57 in 10.0 mi NE 9.2 mph - N/A   Overcast
11:51 AM 25.0 °F 14.2 °F 17.1 °F 72% 30.54 in 10.0 mi NE 11.5 mph - N/A   Overcast
12:51 PM 25.0 °F 14.8 °F 17.1 °F 72% 30.51 in 10.0 mi NE 10.4 mph - N/A   Overcast
1:51 PM 26.1 °F 17.6 °F 18.0 °F 71% 30.50 in 10.0 mi NE 8.1 mph - N/A   Overcast
1:58 PM 27.0 °F 19.5 °F 18.0 °F 69% 30.46 in 10.0 mi Variable 6.9 mph - N/A   Overcast
2:51 PM 27.0 °F 18.0 °F 18.0 °F 69% 30.47 in 10.0 mi NNE 9.2 mph - N/A   Overcast
3:51 PM 28.4 °F 20.4 °F 19.4 °F 69% 30.44 in 10.0 mi NNE 8.1 mph - N/A   Mostly Cloudy
4:51 PM 28.0 °F 20.8 °F 19.0 °F 69% 30.46 in 10.0 mi NNE 6.9 mph - N/A   Overcast
5:51 PM 28.0 °F 19.3 °F 19.0 °F 69% 30.46 in 10.0 mi ENE 9.2 mph - N/A   Overcast
6:51 PM 27.0 °F 19.5 °F 19.0 °F 72% 30.45 in 10.0 mi NE 6.9 mph - N/A   Overcast
6:58 PM 27.0 °F 19.5 °F 19.0 °F 72% 30.42 in 10.0 mi NE 6.9 mph - N/A   Overcast
7:51 PM 27.0 °F 21.6 °F 19.0 °F 72% 30.43 in 10.0 mi NE 4.6 mph - N/A   Overcast
8:51 PM 27.0 °F 20.5 °F 19.0 °F 72% 30.43 in 10.0 mi NNE 5.8 mph - N/A   Overcast
9:51 PM 27.0 °F 18.7 °F 19.0 °F 72% 30.40 in 10.0 mi NE 8.1 mph - N/A   Overcast
10:51 PM 27.0 °F - 18.0 °F 69% 30.39 in 10.0 mi Calm Calm - N/A   Overcast
11:51 PM 27.0 °F 23.0 °F 18.0 °F 69% 30.38 in 10.0 mi North 3.5 mph - N/A   Overcast